Cheraw, SC

1:30 PM EDT on July 27, 2017 (GMT -0400)
Cheraw

Weather History for KCQW - July, 2013

Change the Weather History Date:

Tuesday, July 2, 2013

  Actual Average (KFLO) Record (KFLO)
Temperature  
Mean Temperature 73 °F -  
Max Temperature 75 °F 90 °F 102 °F (1954)
Min Temperature 71 °F 69 °F 57 °F (1988)
Cooling Degree Days 8    
Growing Degree Days 23 (Base 50)    
Moisture  
Dew Point 72 °F    
Average Humidity 98    
Maximum Humidity 100    
Minimum Humidity 89    
Precipitation  
Precipitation 0.47 in - - ()
Sea Level Pressure  
Sea Level Pressure 30.10 in    
Wind  
Wind Speed - (North)    
Max Wind Speed -    
Max Gust Speed -    
Visibility 8 miles    
Events Rain , Thunderstorm    
Averages and records for this station are not official NWS values.
T = Trace of Precipitation, MM = Missing Value Source: NWS Daily Summary

Daily Weather History Graph

Daily Weather History Graph

Search for Another Location

Airport or City:

Trip Planner

Search our weather history database for the weather conditions in past years. The results will help you decide how hot, cold, wet, or windy it might be!

Date:

Astronomy

Jul. 02, 2013 Rise Set
Actual Time 6:10 AM EDT 8:36 PM EDT
Civil Twilight 5:41 AM EDT 9:06 PM EDT
Nautical Twilight 5:05 AM EDT 9:42 PM EDT
Astronomical Twilight 4:25 AM EDT 10:22 PM EDT
Moon 2:05 AM EDT (7/2) 3:54 PM EDT (7/2)
Length of Visible Light 15h 24m
Length of Day
14h 26m
Waning Crescent, 26% of the Moon is Illuminated
Jul 2
Waning Crescent
Jul 8
New
Jul 15
First Quarter
Jul 22
Full
Jul 29
Last Quarter

Hourly Weather History & Observations

Time (EDT) Temp. Dew Point Humidity Pressure Visibility Wind Dir Wind Speed Gust Speed Precip Events Conditions
12:15 AM 71.6 °F 71.6 °F 100% 30.02 in 10.0 mi North - - N/A   Overcast
12:35 AM 71.6 °F 71.6 °F 100% 30.02 in 10.0 mi North - - N/A   Overcast
12:55 AM 71.6 °F 71.6 °F 100% 30.02 in 10.0 mi North - - N/A   Overcast
1:15 AM 71.6 °F 71.6 °F 100% 30.02 in 10.0 mi North - - N/A   Overcast
1:35 AM 71.6 °F 71.6 °F 100% 30.02 in 10.0 mi North - - N/A   Overcast
1:55 AM 71.6 °F 71.6 °F 100% 30.02 in 10.0 mi North - - N/A   Overcast
2:15 AM 71.6 °F 71.6 °F 100% 30.02 in 10.0 mi North - - N/A   Overcast
2:35 AM 71.6 °F 71.6 °F 100% 30.01 in 10.0 mi North - - N/A   Overcast
2:55 AM 71.6 °F 71.6 °F 100% 30.02 in 10.0 mi North - - N/A   Mostly Cloudy
3:15 AM 71.6 °F 71.6 °F 100% 30.02 in 10.0 mi North - - N/A   Overcast
3:35 AM 71.6 °F 71.6 °F 100% 30.02 in 10.0 mi North - - N/A   Overcast
3:55 AM 71.6 °F 71.6 °F 100% 30.02 in 10.0 mi North - - N/A   Mostly Cloudy
4:15 AM 71.6 °F 71.6 °F 100% 30.03 in 10.0 mi North - - N/A   Mostly Cloudy
4:35 AM 71.6 °F 71.6 °F 100% 30.04 in 10.0 mi North - - N/A   Overcast
4:55 AM 71.6 °F 71.6 °F 100% 30.04 in 10.0 mi North - - N/A   Mostly Cloudy
5:15 AM 71.6 °F 71.6 °F 100% 30.04 in 10.0 mi North - - N/A   Mostly Cloudy
5:35 AM 71.6 °F 71.6 °F 100% 30.05 in 10.0 mi North - - N/A   Mostly Cloudy
5:55 AM 71.6 °F 71.6 °F 100% 30.05 in 10.0 mi North - - N/A   Mostly Cloudy
6:15 AM 71.6 °F 71.6 °F 100% 30.06 in 10.0 mi North - - N/A   Mostly Cloudy
6:35 AM 71.6 °F 71.6 °F 100% 30.07 in 9.0 mi North - - N/A   Overcast
6:55 AM 71.6 °F 71.6 °F 100% 30.07 in 6.0 mi North - - N/A Rain Light Rain
7:15 AM 71.6 °F 71.6 °F 100% 30.07 in 5.0 mi North - - N/A Rain Light Rain
7:35 AM 71.6 °F 71.6 °F 100% 30.07 in 4.0 mi North - - N/A Rain Light Rain
7:55 AM 71.6 °F 71.6 °F 100% 30.08 in 6.0 mi North - - N/A Rain Light Rain
8:15 AM 71.6 °F 71.6 °F 100% 30.09 in 8.0 mi North - - N/A Rain Light Rain
8:35 AM 73.4 °F 73.4 °F 100% 30.10 in 8.0 mi North - - N/A Rain Light Rain
8:55 AM 73.4 °F 71.6 °F 94% 30.10 in 5.0 mi North - - 0.01 in Rain Light Rain
9:15 AM 73.4 °F 71.6 °F 94% 30.11 in 4.0 mi North - - 0.01 in Rain Light Rain
9:35 AM 71.6 °F 71.6 °F 100% 30.11 in 5.0 mi North - - 0.01 in Rain Light Rain
9:55 AM 71.6 °F 71.6 °F 100% 30.11 in 7.0 mi North - - 0.01 in Rain Light Rain
10:15 AM 73.4 °F 71.6 °F 94% 30.11 in 7.0 mi North - - N/A Rain Light Rain
10:35 AM 73.4 °F 71.6 °F 94% 30.11 in 8.0 mi North - - 0.01 in Rain Light Rain
10:55 AM 73.4 °F 71.6 °F 94% 30.11 in 10.0 mi North - - 0.01 in Rain Light Rain
11:15 AM 73.4 °F 71.6 °F 94% 30.12 in 10.0 mi North - - N/A   Clear
11:35 AM 75.2 °F 71.6 °F 89% 30.13 in 10.0 mi North - - N/A Rain Light Rain
11:55 AM 75.2 °F 71.6 °F 89% 30.13 in 10.0 mi North - - N/A   Partly Cloudy
12:15 PM 75.2 °F 71.6 °F 89% 30.14 in 10.0 mi North - - N/A   Clear
12:35 PM 75.2 °F 71.6 °F 89% 30.13 in 6.0 mi North - - N/A Rain Light Rain
12:55 PM 75.2 °F 71.6 °F 89% 30.13 in 9.0 mi North - - N/A Rain Light Rain
1:15 PM 75.2 °F 71.6 °F 89% 30.13 in 10.0 mi North - - N/A   Overcast
1:35 PM 75.2 °F 73.4 °F 94% 30.13 in 8.0 mi North - - N/A Rain Light Rain
1:55 PM 75.2 °F 73.4 °F 94% 30.13 in 5.0 mi North - - N/A Rain Light Rain
2:15 PM 71.6 °F 71.6 °F 100% 30.14 in 2.0 mi North - - 0.06 in Rain Rain
2:35 PM 71.6 °F 71.6 °F 100% 30.14 in 2.5 mi North - - 0.13 in Rain Rain
2:55 PM 71.6 °F 71.6 °F 100% 30.14 in 1.5 mi North - - 0.28 in Rain Light Rain
3:15 PM 71.6 °F 71.6 °F 100% 30.14 in 4.0 mi North - - 0.03 in Rain Light Rain
3:35 PM 71.6 °F 71.6 °F 100% 30.14 in 5.0 mi North - - 0.06 in Rain Light Rain
3:55 PM 73.4 °F 73.4 °F 100% 30.13 in 4.0 mi North - - 0.10 in Rain Light Rain
4:15 PM 73.4 °F 73.4 °F 100% 30.13 in 7.0 mi North - - 0.01 in Rain Light Rain
4:35 PM 73.4 °F 73.4 °F 100% 30.13 in 10.0 mi North - - 0.01 in   Scattered Clouds
4:55 PM 73.4 °F 73.4 °F 100% 30.13 in 9.0 mi North - - 0.01 in Rain Light Rain
5:15 PM 73.4 °F 73.4 °F 100% 30.13 in 6.0 mi North - - 0.01 in Rain Light Rain
5:35 PM 73.4 °F 73.4 °F 100% 30.13 in 8.0 mi North - - 0.01 in Rain Light Rain
5:55 PM 73.4 °F 73.4 °F 100% 30.12 in 7.0 mi North - - 0.01 in Rain Light Rain
6:15 PM 73.4 °F 73.4 °F 100% 30.13 in 5.0 mi North - - 0.01 in Rain Light Rain
6:35 PM 73.4 °F 73.4 °F 100% 30.12 in 8.0 mi North - - 0.01 in Rain Light Rain
6:55 PM 73.4 °F 73.4 °F 100% 30.13 in 9.0 mi North - - 0.01 in   Mostly Cloudy
7:15 PM 73.4 °F 73.4 °F 100% 30.13 in 3.0 mi North - - 0.01 in Rain Light Rain
7:35 PM 73.4 °F 73.4 °F 100% 30.14 in 4.0 mi North - - 0.02 in Rain , Thunderstorm Light Rain
7:55 PM 73.4 °F 73.4 °F 100% 30.13 in 4.0 mi North - - 0.02 in Rain Light Rain
8:15 PM 73.4 °F 73.4 °F 100% 30.13 in 9.0 mi North - - N/A   Mostly Cloudy
8:35 PM 73.4 °F 73.4 °F 100% 30.14 in 5.0 mi North - - 0.01 in Rain Light Rain
8:55 PM 71.6 °F 71.6 °F 100% 30.15 in 10.0 mi North - - 0.01 in   Mostly Cloudy
9:15 PM 71.6 °F 71.6 °F 100% 30.15 in 10.0 mi North - - N/A   Mostly Cloudy
9:35 PM 71.6 °F 71.6 °F 100% 30.15 in 10.0 mi North - - N/A   Mostly Cloudy
9:55 PM 71.6 °F 71.6 °F 100% 30.16 in 9.0 mi North - - N/A   Overcast
10:15 PM 73.4 °F 73.4 °F 100% 30.16 in 8.0 mi North - - N/A   Mostly Cloudy
10:35 PM 73.4 °F 73.4 °F 100% 30.17 in 10.0 mi North - - N/A   Overcast
10:55 PM 73.4 °F 73.4 °F 100% 30.17 in 10.0 mi North - - N/A   Mostly Cloudy
11:15 PM 73.4 °F 73.4 °F 100% 30.16 in 10.0 mi North - - N/A   Scattered Clouds
11:35 PM 73.4 °F 73.4 °F 100% 30.16 in 10.0 mi North - - N/A   Mostly Cloudy
11:55 PM 73.4 °F 73.4 °F 100% 30.17 in 10.0 mi North - - N/A   Mostly Cloudy